• In Hungary
  • List of Countries
  • For 7 days
  • Water Temperature
  • Satellite Maps
  • Weather Map
  • News
  • Weather Widgets
  • user-avatar
    Login

    Hourly Weather Nizwa

    Today, 17 January, Wednesday

    Time Temperature Precipitation Wind Pressure Humidity
    00:00 +17°C° 0 mm 2 mps 695 mmHg 37%
    01:00 +17°C° 0 mm 2 mps 695 mmHg 39%
    02:00 +16°C° 0 mm 1 mps 695 mmHg 42%
    03:00 +16°C° 0 mm 1 mps 695 mmHg 44%
    04:00 +15°C° 0 mm 1 mps 694 mmHg 47%
    05:00 +14°C° 0 mm 1 mps 695 mmHg 50%
    06:00 +14°C° 0 mm 1 mps 695 mmHg 53%
    07:00 +13°C° 0 mm 1 mps 695 mmHg 56%
    08:00 +15°C° 0 mm 1 mps 696 mmHg 50%
    09:00 +18°C° 0 mm 1 mps 696 mmHg 44%
    10:00 +19°C° 0 mm 2 mps 697 mmHg 42%
    11:00 +21°C° 0 mm 2 mps 697 mmHg 37%
    12:00 +23°C° 0 mm 2 mps 696 mmHg 33%
    13:00 +24°C° 0 mm 3 mps 696 mmHg 29%
    14:00 +24°C° 0 mm 3 mps 696 mmHg 29%
    15:00 +24°C° 0 mm 3 mps 696 mmHg 28%
    16:00 +24°C° 0 mm 3 mps 695 mmHg 27%
    17:00 +23°C° 0 mm 2 mps 695 mmHg 30%
    18:00 +21°C° 0 mm 2 mps 695 mmHg 33%
    19:00 +20°C° 0 mm 2 mps 695 mmHg 36%
    20:00 +19°C° 0 mm 2 mps 695 mmHg 39%
    21:00 +19°C° 0 mm 2 mps 696 mmHg 42%
    22:00 +19°C° 0 mm 1 mps 696 mmHg 46%
    23:00 +18°C° 0 mm 1 mps 696 mmHg 50%

    Tomorrow, 18 January, Thursday

    Time Temperature Precipitation Wind Pressure Humidity
    00:00 +18°C° 0 mm 1 mps 695 mmHg 54%
    01:00 +16°C° 0 mm 1 mps 695 mmHg 58%
    02:00 +16°C° 0 mm 1 mps 695 mmHg 63%
    03:00 +15°C° 0 mm 1 mps 695 mmHg 68%
    04:00 +15°C° 0 mm 1 mps 695 mmHg 73%
    05:00 +14°C° 0 mm 1 mps 695 mmHg 75%
    06:00 +14°C° 0 mm 1 mps 695 mmHg 78%
    07:00 +12°C° 0 mm 0 mps 696 mmHg 80%
    08:00 +15°C° 0 mm 1 mps 696 mmHg 71%
    09:00 +18°C° 0 mm 1 mps 697 mmHg 61%
    10:00 +20°C° 0 mm 1 mps 697 mmHg 52%
    11:00 +21°C° 0 mm 1 mps 697 mmHg 45%
    12:00 +21°C° 0 mm 2 mps 697 mmHg 38%
    13:00 +23°C° 0 mm 2 mps 697 mmHg 31%
    14:00 +24°C° 0 mm 2 mps 696 mmHg 30%
    15:00 +24°C° 0 mm 3 mps 696 mmHg 29%
    16:00 +24°C° 0 mm 3 mps 696 mmHg 28%
    17:00 +23°C° 0 mm 2 mps 696 mmHg 30%
    18:00 +21°C° 0 mm 2 mps 696 mmHg 33%
    19:00 +21°C° 0 mm 1 mps 697 mmHg 36%
    20:00 +20°C° 0 mm 1 mps 697 mmHg 40%
    21:00 +19°C° 0 mm 1 mps 697 mmHg 44%
    22:00 +19°C° 0 mm 1 mps 697 mmHg 48%
    23:00 +18°C° 0 mm 1 mps 697 mmHg 51%

    Day after tomorrow, 19 January, Friday

    Time Temperature Precipitation Wind Pressure Humidity
    00:00 +18°C° 0 mm 1 mps 697 mmHg 55%
    01:00 +16°C° 0 mm 1 mps 697 mmHg 59%
    02:00 +16°C° 0 mm 1 mps 696 mmHg 62%
    03:00 +15°C° 0 mm 1 mps 696 mmHg 66%
    04:00 +15°C° 0 mm 1 mps 696 mmHg 69%
    05:00 +15°C° 0 mm 1 mps 696 mmHg 72%
    06:00 +14°C° 0 mm 1 mps 696 mmHg 74%
    07:00 +14°C° 0 mm 1 mps 697 mmHg 77%
    08:00 +16°C° 0 mm 2 mps 697 mmHg 66%
    09:00 +18°C° 0 mm 2 mps 698 mmHg 56%
    10:00 +20°C° 0 mm 2 mps 699 mmHg 45%
    11:00 +21°C° 0 mm 2 mps 699 mmHg 40%
    12:00 +22°C° 0 mm 3 mps 698 mmHg 34%
    13:00 +24°C° 0 mm 3 mps 698 mmHg 29%
    14:00 +24°C° 0 mm 3 mps 698 mmHg 28%
    15:00 +24°C° 0 mm 3 mps 698 mmHg 28%
    16:00 +24°C° 0 mm 3 mps 697 mmHg 27%
    17:00 +22°C° 0 mm 3 mps 698 mmHg 30%
    18:00 +23°C° 0 mm 2 mps 698 mmHg 33%
    19:00 +21°C° 0 mm 2 mps 698 mmHg 36%
    20:00 +20°C° 0 mm 2 mps 698 mmHg 39%
    21:00 +19°C° 0 mm 2 mps 698 mmHg 42%
    22:00 +18°C° 0 mm 2 mps 699 mmHg 45%
    23:00 +18°C° 0 mm 2 mps 698 mmHg 51%

    20 January, Saturday

    Time Temperature Precipitation Wind Pressure Humidity
    00:00 +17°C° 0 mm 2 mps 698 mmHg 57%
    01:00 +16°C° 0 mm 1 mps 698 mmHg 63%
    02:00 +16°C° 0 mm 1 mps 698 mmHg 67%
    03:00 +15°C° 0 mm 1 mps 697 mmHg 70%
    04:00 +15°C° 0 mm 1 mps 697 mmHg 73%
    05:00 +14°C° 0 mm 1 mps 697 mmHg 75%
    06:00 +13°C° 0 mm 0 mps 697 mmHg 76%
    07:00 +13°C° 0 mm 0 mps 698 mmHg 77%
    08:00 +15°C° 0 mm 0 mps 698 mmHg 68%
    09:00 +17°C° 0 mm 0 mps 699 mmHg 58%
    10:00 +19°C° 0 mm 0 mps 700 mmHg 48%
    11:00 +22°C° 0 mm 1 mps 699 mmHg 43%
    12:00 +23°C° 0 mm 1 mps 699 mmHg 37%
    13:00 +24°C° 0 mm 1 mps 698 mmHg 31%
    14:00 +25°C° 0 mm 1 mps 698 mmHg 30%
    15:00 +25°C° 0 mm 2 mps 698 mmHg 29%
    16:00 +25°C° 0 mm 2 mps 697 mmHg 27%
    17:00 +24°C° 0 mm 2 mps 698 mmHg 29%
    18:00 +23°C° 0 mm 2 mps 698 mmHg 32%
    19:00 +23°C° 0 mm 2 mps 698 mmHg 34%
    20:00 +21°C° 0 mm 2 mps 698 mmHg 35%
    21:00 +20°C° 0 mm 2 mps 698 mmHg 37%
    22:00 +20°C° 0 mm 1 mps 698 mmHg 39%
    23:00 +20°C° 0 mm 1 mps 698 mmHg 40%

    21 January, Sunday

    Time Temperature Precipitation Wind Pressure Humidity
    00:00 +19°C° 0 mm 1 mps 698 mmHg 42%
    01:00 +19°C° 0 mm 1 mps 697 mmHg 43%
    02:00 +18°C° 0 mm 1 mps 697 mmHg 45%
    03:00 +16°C° 0 mm 1 mps 697 mmHg 46%
    04:00 +16°C° 0 mm 1 mps 696 mmHg 48%
    05:00 +15°C° 0 mm 1 mps 696 mmHg 48%
    06:00 +15°C° 0 mm 1 mps 697 mmHg 48%
    07:00 +15°C° 0 mm 1 mps 697 mmHg 48%
    08:00 +18°C° 0 mm 1 mps 698 mmHg 41%
    09:00 +20°C° 0 mm 1 mps 698 mmHg 34%
    10:00 +21°C° 0 mm 2 mps 699 mmHg 26%
    11:00 +22°C° 0 mm 3 mps 698 mmHg 23%
    12:00 +23°C° 0 mm 4 mps 698 mmHg 21%
    13:00 +25°C° 0 mm 5 mps 697 mmHg 18%
    14:00 +25°C° 0 mm 5 mps 697 mmHg 19%
    15:00 +24°C° 0 mm 6 mps 697 mmHg 19%
    16:00 +23°C° 0 mm 6 mps 696 mmHg 20%
    17:00 +22°C° 0 mm 6 mps 696 mmHg 25%
    18:00 +21°C° 0 mm 5 mps 696 mmHg 29%
    19:00 +19°C° 0 mm 5 mps 697 mmHg 34%
    20:00 +18°C° 0 mm 4 mps 697 mmHg 38%
    21:00 +18°C° 0 mm 4 mps 697 mmHg 43%
    22:00 +17°C° 0 mm 3 mps 697 mmHg 47%
    23:00 +16°C° 0 mm 3 mps 696 mmHg 49%

    22 January, Monday

    Time Temperature Precipitation Wind Pressure Humidity
    00:00 +16°C° 0 mm 3 mps 696 mmHg 52%
    01:00 +14°C° 0 mm 3 mps 696 mmHg 54%
    02:00 +14°C° 0 mm 3 mps 695 mmHg 55%
    03:00 +13°C° 0 mm 3 mps 695 mmHg 56%
    04:00 +13°C° 0 mm 3 mps 695 mmHg 57%
    05:00 +13°C° 0 mm 3 mps 696 mmHg 52%
    06:00 +13°C° 0 mm 2 mps 696 mmHg 48%
    07:00 +13°C° 0 mm 2 mps 696 mmHg 43%
    08:00 +15°C° 0 mm 2 mps 697 mmHg 38%
    09:00 +17°C° 0 mm 2 mps 698 mmHg 33%
    10:00 +19°C° 0 mm 2 mps 698 mmHg 28%
    11:00 +20°C° 0 mm 2 mps 698 mmHg 26%
    12:00 +21°C° 0 mm 2 mps 698 mmHg 24%
    13:00 +23°C° 0 mm 2 mps 697 mmHg 22%
    14:00 +23°C° 0 mm 2 mps 697 mmHg 22%
    15:00 +23°C° 0 mm 2 mps 697 mmHg 22%
    16:00 +24°C° 0 mm 2 mps 696 mmHg 22%
    17:00 +21°C° 0 mm 2 mps 697 mmHg 25%
    18:00 +20°C° 0 mm 2 mps 697 mmHg 28%
    19:00 +19°C° 0 mm 2 mps 697 mmHg 31%
    20:00 +19°C° 0 mm 1 mps 697 mmHg 34%
    21:00 +19°C° 0 mm 1 mps 697 mmHg 36%
    22:00 +18°C° 0 mm 1 mps 697 mmHg 38%
    23:00 +16°C° 0 mm 1 mps 697 mmHg 39%
    Show more